This demonstration page uses our WeatherBlox Daily Observations layout. Learn more.

Left ArrowRight Arrow

Hourly Observations for January 14, 2020

Temp ( °F °C ) Dew Point ( °F °C ) Humidity (%) Winds ( mph kmh ) Pressure ( in mb ) Visibility ( mi km ) Precip ( " mm )
12:53 am 00:53 Clear 38 3.3 35 1.7 89 89 NE 5 7 30.25 1024 10 16 0.00 0.00
1:53 am 01:53 Mostly Clear 37 2.8 34 1.1 89 89 E 5 7 30.21 1023 10 16 0.00 0.00
2:53 am 02:53 Mostly Cloudy 37 2.8 35 1.7 93 93 Calm 30.17 1022 9 14 0.00 0.00
3:53 am 03:53 Mostly Cloudy 36 2.2 33 0.6 89 89 NNW 3 6 30.14 1021 9 14 0.00 0.00
4:53 am 04:53 Mostly Clear 36 2.2 34 1.1 93 93 Calm 30.10 1019 7 11 0.00 0.00
5:53 am 05:53 Clear with Mist and Fog 34 1.1 32 0 92 92 Calm 30.11 1020 5 8 0.00 0.00
6:24 am 06:24 Mostly Cloudy with Mist and Fog 34 1.1 33 0.6 97 97 Calm 30.13 1020 5 8 0.00 0.00
6:39 am 06:39 Cloudy with Mist and Fog 35 1.7 33 0.6 93 93 Calm 30.14 1021 6 10 0.00 0.00
6:53 am 06:53 Cloudy with Mist and Fog 36 2.2 34 1.1 93 93 WNW 3 6 30.14 1021 5 8 0.00 0.00
7:21 am 07:21 Cloudy with Mist and Fog 37 2.8 35 1.7 93 93 Calm 30.14 1021 6 10 0.00 0.00
7:53 am 07:53 Cloudy with Mist and Fog 38 3.3 36 2.2 93 93 Calm 30.14 1021 6 10 0.00 0.00
8:16 am 08:16 Cloudy with Mist and Fog 38 3.3 36 2.2 93 93 Calm 30.16 1021 2 3 0.00 0.00
8:23 am 08:23 Cloudy with Mist and Fog 38 3.3 37 2.8 97 97 Calm 30.16 1021 1 2 0.00 0.00
8:30 am 08:30 Cloudy with Fog 38 3.3 37 2.8 97 97 Calm 30.16 1021 0 0 0.00 0.00
8:53 am 08:53 Mostly Cloudy with Fog 39 3.9 38 3.3 96 96 Calm 30.15 1021 0 0 0.00 0.00
9:38 am 09:38 Cloudy with Mist and Fog 42 5.6 41 5 96 96 WSW 6 9 30.17 1022 2 3 0.00 0.00
9:45 am 09:45 Cloudy with Mist and Fog 42 5.6 41 5 96 96 WSW 5 7 30.17 1022 3 4 0.00 0.00
9:47 am 09:47 Cloudy with Mist and Fog 43 6 41 5 93 93 WSW 6 9 30.17 1022 3 5 0.00 0.00
9:53 am 09:53 Cloudy with Mist and Fog 43 6.1 42 5.6 97 97 WSW 5 7 30.17 1022 3 5 0.00 0.00
10:53 am 10:53 Cloudy 45 7.2 42 5.6 90 90 W 8 13 30.19 1022 8 13 0.00 0.00
11:53 am 11:53 Cloudy 47 8.3 41 5 80 80 W 10 17 30.19 1023 10 16 0.00 0.00
12:53 pm 12:53 Cloudy 47 8.3 41 5 80 80 WSW 9 15 30.19 1022 10 16 0.00 0.00
1:15 pm 13:15 Cloudy 48 8.9 41 5 77 77 W 12 19 30.18 1022 10 16 0.00 0.00
1:53 pm 13:53 Cloudy 48 8.9 41 5 77 77 WSW 12 19 30.18 1022 10 16 0.00 0.00
2:53 pm 14:53 Cloudy 48 8.9 41 5 77 77 WNW 8 13 30.19 1022 10 16 0.00 0.00
3:24 pm 15:24 Cloudy 47 8.3 41 5 80 80 WNW 8 13 30.19 1022 8 13 0.00 0.00
3:53 pm 15:53 Cloudy 47 8.3 40 4.4 77 77 W 6 9 30.20 1023 10 16 0.00 0.00
4:53 pm 16:53 Cloudy 46 7.8 39 3.9 77 77 WSW 8 13 30.21 1023 10 16 0.00 0.00
5:06 pm 17:06 Cloudy 46 7.8 39 3.9 77 77 W 6 9 30.21 1023 10 16 0.00 0.00
5:35 pm 17:35 Cloudy 45 7.2 39 3.9 80 80 W 6 9 30.23 1024 10 16 0.00 0.00
5:53 pm 17:53 Partly Cloudy 44 6.7 38 3.3 79 79 VRB 5 7 30.22 1023 10 16 0.00 0.00
6:53 pm 18:53 Clear 38 3.3 35 1.7 89 89 Calm 30.22 1023 8 13 0.00 0.00
7:53 pm 19:53 Clear with Mist and Fog 33 0.6 31 -0.6 92 92 Calm 30.22 1023 4 6 0.00 0.00
8:07 pm 20:07 Mostly Clear with Mist and Fog 32 0 30 -1.1 92 92 Calm 30.24 1024 3 4 0.00 0.00
8:16 pm 20:16 Mostly Clear with Mist and Fog 33 0.6 31 -0.6 92 92 Calm 30.25 1024 5 8 0.00 0.00
8:53 pm 20:53 Clear with Mist and Fog 32 0 30 -1.1 92 92 Calm 30.24 1024 5 8 0.00 0.00
9:20 pm 21:20 Mostly Clear with Mist and Fog 32 0 30 -1.1 92 92 Calm 30.25 1025 1 2 0.00 0.00
9:27 pm 21:27 Mostly Cloudy with Freezing Fog 31 -0.6 30 -1.1 96 96 Calm 30.26 1025 0 0 0.00 0.00
9:39 pm 21:39 Mostly Clear with Mist and Fog 31 -0.6 30 -1.1 96 96 Calm 30.26 1025 2 2 0.00 0.00
9:46 pm 21:46 Mostly Cloudy with Mist and Fog 30 -1.1 28 -2.2 92 92 Calm 30.26 1025 1 1 0.00 0.00
9:53 pm 21:53 Clear with Mist and Fog 31 -0.6 29 -1.7 92 92 Calm 30.24 1024 1 2 0.00 0.00
9:57 pm 21:57 Clear with Mist and Fog 32 0 30 -1.1 92 92 Calm 30.25 1025 2 3 0.00 0.00
10:09 pm 22:09 Clear with Mist and Fog 31 -0.6 29 -1.7 92 92 Calm 30.26 1025 2 2 0.00 0.00
10:18 pm 22:18 Clear with Mist and Fog 30 -1.1 29 -1.7 96 96 Calm 30.26 1025 2 3 0.00 0.00
10:26 pm 22:26 Clear with Mist and Fog 31 -0.6 28 -2.2 89 89 Calm 30.26 1025 5 8 0.00 0.00
10:36 pm 22:36 Mostly Clear with Mist and Fog 31 -0.6 29 -1.7 92 92 Calm 30.26 1025 2 2 0.00 0.00
10:43 pm 22:43 Mostly Cloudy with Freezing Fog 29 -1.7 28 -2.2 96 96 Calm 30.26 1025 0 0 0.00 0.00
10:53 pm 22:53 Mostly Cloudy with Freezing Fog 31 -0.6 29 -1.7 92 92 Calm 30.24 1024 0 0 0.00 0.00
11:17 pm 23:17 Partly Cloudy with Mist and Fog 31 -0.6 28 -2.2 89 89 Calm 30.27 1025 1 2 0.00 0.00
11:22 pm 23:22 Mostly Cloudy with Mist and Fog 30 -1.1 28 -2.2 92 92 Calm 30.27 1025 1 1 0.00 0.00
11:53 pm 23:53 Mostly Cloudy with Freezing Fog 30 -1.1 28 -2.2 92 92 Calm 30.24 1024 1 1 0.00 0.00

Powered by AerisWeather